Flag for United Kingdom Weather past 2 weeks in Reading, England, United Kingdom

Now
50 °F

Sunny.


Feels Like: 50 °F
Forecast: 42 / 66 °F
Wind: 2 mph from Southwest

Location: Benson

Current Time: Aug 23, 2014 at 9:58:03 PM

Latest Report: Aug 23, 2014 at 8:50 PM


Visibility: N/A

Pressure: 30.04 "Hg

Humidity: 94%

Dew point: 48 °F

Location of ReadingLocation

Historic Weather in Reading — Graph

°F

Reading temperature yesterday

Maximum temperature yesterday: 64 °F (at 12:50 PM)
Minimum temperature yesterday: 48 °F (at 11:50 PM)
Average temperature yesterday: 58 °F

Past Weeks' High & Low Weather Summary

 TemperatureHumidityPressure
High73 °F (Aug 9, 2:50 PM)100% (Aug 8, 11:50 PM)30.15 "Hg (Aug 8, 11:50 PM)
Low37 °F (Aug 21, 4:50 AM)38% (Aug 17, 2:50 PM)29.27 "Hg (Aug 10, 11:50 AM)
Average58 °F73%29.84 "Hg
* Reported Aug 8 7:50 PM — Aug 23 7:50 PM, Reading, Weather by CustomWeather, © 2014

Note: Actual official high and low records may vary slightly from our data, if they occured in-between our weather recording intervals... More about our weather records

Advertising

Reading weather history for previous 24 hours

 ConditionsComfort  
Time TempWeatherWind HumidityBarometerVisibility
7:50 PM
Aug 23
55 °FPassing clouds.3 mph82%30.04 "HgN/A
6:50 PM59 °FPartly sunny.6 mph68%30.01 "HgN/A
5:50 PM59 °FPartly sunny.5 mph72%30.01 "HgN/A
4:50 PM59 °FSprinkles. Scattered clouds.9 mph63%30.01 "HgN/A
3:50 PM64 °FScattered clouds.13 mph43%29.98 "HgN/A
2:50 PM61 °FScattered clouds.8 mph52%29.98 "HgN/A
1:50 PM64 °FScattered clouds.10 mph49%29.98 "HgN/A
12:50 PM63 °FScattered clouds.12 mph49%29.98 "HgN/A
11:50 AM61 °FPartly sunny.9 mph52%29.98 "HgN/A
10:50 AM57 °FPartly sunny.9 mph63%29.98 "HgN/A
9:50 AM57 °FScattered clouds.9 mph67%29.98 "HgN/A
8:50 AM55 °FSunny.6 mph72%29.98 "Hg10 mi
7:50 AM50 °FSunny.3 mph82%29.98 "Hg10 mi
6:50 AM45 °FPartly cloudy.1 mph100%29.98 "HgN/A
5:50 AM45 °FPassing clouds.No wind93%29.95 "HgN/A
4:50 AM43 °FPassing clouds.2 mph93%29.95 "HgN/A
3:50 AM41 °FClear.2 mph100%29.95 "HgN/A
2:50 AM45 °FPassing clouds.1 mph93%29.95 "HgN/A
1:50 AM52 °FOvercast.2 mph82%29.95 "HgN/A
12:50 AM52 °FOvercast.3 mph82%29.95 "HgN/A
11:50 PM
Aug 22
48 °FPassing clouds.2 mph87%29.95 "HgN/A
10:50 PM54 °FPassing clouds.2 mph72%29.95 "HgN/A
9:50 PM57 °FPassing clouds.3 mph63%29.92 "HgN/A
Weather by CustomWeather, © 2014

See weather overviewHow to use our weather pages